Location: Unspecified
(0.0000°N, 0.0000°E)
Time: 23:14:15
(UTC+02:00)

SeaSat 1 - Visible Passes

Search period start: 20 October 2014 00:00
Search period end: 29 October 2014 23:00
Orbit: 747 x 749 km, 108.0° (Epoch: 19 October)

Date Brightness Start Highest point End Pass type
(mag) Time Alt. Az. Time Alt. Az. Time Alt. Az.
25 Oct 4.9 05:18:57 10° SSE 05:19:37 14° SSE 05:19:37 14° SSE visible
26 Oct 4.6 05:16:41 10° SSW 05:17:23 12° SW 05:17:23 12° SW visible
27 Oct 4.3 04:33:34 10° S 04:35:19 22° S 04:35:19 22° S visible
28 Oct 5.2 03:52:31 10° SE 03:53:14 14° SE 03:53:14 14° SE visible
28 Oct 4.4 05:31:46 10° SW 05:33:06 13° SW 05:33:06 13° SW visible
29 Oct 3.6 04:48:12 10° S 04:51:02 32° SSW 04:51:02 32° SSW visible
